Grand Forks AFB, ND

11:12 PM CDT on August 17, 2017 (GMT -0500)
Grand Forks Air Force Base

Weather History for KRDR - December, 2012

Change the Weather History Date:

Sunday, December 30, 2012

  Actual Average Record
Temperature  
Mean Temperature 13 °F -  
Max Temperature 24 °F 15 °F 35 °F (1999)
Min Temperature 2 °F 0 °F -23 °F (2013)
Degree Days  
Heating Degree Days 52    
Moisture  
Dew Point 9 °F    
Average Humidity 78    
Maximum Humidity 86    
Minimum Humidity 67    
Precipitation  
Precipitation 0.00 in - - ()
Sea Level Pressure  
Sea Level Pressure 30.02 in    
Wind  
Wind Speed 11 mph (NNW)    
Max Wind Speed 21 mph    
Max Gust Speed 25 mph    
Visibility 10 miles    
Events Snow    
Averages and records for this station are not official NWS values.
T = Trace of Precipitation, MM = Missing Value Source: NWS Daily Summary

Daily Weather History Graph

Daily Weather History Graph

Search for Another Location

Airport or City:

Trip Planner

Search our weather history database for the weather conditions in past years. The results will help you decide how hot, cold, wet, or windy it might be!

Date:

Astronomy

Dec. 30, 2012 Rise Set
Actual Time 8:19 AM CST 4:45 PM CST
Civil Twilight 7:43 AM CST 5:22 PM CST
Nautical Twilight 7:03 AM CST 6:01 PM CST
Astronomical Twilight 6:25 AM CST 6:39 PM CST
Moon 7:30 PM CST (12/30) 9:18 AM CST (12/30)
Length of Visible Light 9h 38m
Length of Day
8h 26m
Waning Gibbous, 95% of the Moon is Illuminated
Dec 30
Waning Gibbous
Jan 4
Last Quarter
Jan 11
New
Jan 18
First Quarter
Jan 26
Full

Hourly Weather History & Observations

Time (CST) Temp. Windchill Dew Point Humidity Pressure Visibility Wind Dir Wind Speed Gust Speed Precip Events Conditions
12:55 AM 3.0 °F -9.3 °F -2.2 °F 79% 30.05 in 10.0 mi SSW 6.9 mph - N/A   Clear
1:55 AM 3.6 °F -10.9 °F -1.8 °F 78% 30.04 in 10.0 mi SSW 9.2 mph - N/A   Clear
2:55 AM 2.5 °F -11.1 °F -2.6 °F 79% 30.04 in 10.0 mi SSW 8.1 mph - N/A   Partly Cloudy
3:55 AM 4.1 °F -11.1 °F -1.1 °F 79% 30.03 in 10.0 mi SSW 10.4 mph - N/A   Overcast
4:55 AM 5.9 °F -8.0 °F 1.0 °F 80% 30.00 in 10.0 mi SSW 9.2 mph - N/A   Partly Cloudy
5:55 AM 7.3 °F -7.1 °F 2.5 °F 81% 29.99 in 10.0 mi SSW 10.4 mph - N/A   Overcast
6:55 AM 8.2 °F -6.0 °F 3.4 °F 81% 29.97 in 10.0 mi SSW 10.4 mph - N/A   Overcast
7:55 AM 8.6 °F -7.0 °F 3.4 °F 79% 29.96 in 10.0 mi SSW 12.7 mph - N/A   Overcast
8:55 AM 10.0 °F -1.9 °F 4.8 °F 79% 29.95 in 10.0 mi SSW 8.1 mph - N/A   Overcast
9:55 AM 11.3 °F -0.4 °F 5.5 °F 78% 29.96 in 10.0 mi SSW 8.1 mph - N/A   Overcast
10:55 AM 10.9 °F -0.8 °F 4.3 °F 75% 29.95 in 10.0 mi SSW 8.1 mph - N/A   Clear
11:55 AM 14.5 °F 5.7 °F 7.2 °F 73% 29.92 in 10.0 mi WSW 5.8 mph - N/A   Clear
12:55 PM 20.5 °F 10.8 °F 11.8 °F 69% 29.90 in 10.0 mi WNW 8.1 mph - N/A   Mostly Cloudy
1:10 PM 21.2 °F 11.7 °F 12.2 °F 68% 29.90 in 10.0 mi West 8.1 mph - N/A   Overcast
1:45 PM 23.0 °F 14.7 °F 15.8 °F 74% 29.90 in 10.0 mi NW 6.9 mph - N/A   Overcast
1:55 PM 23.9 °F 15.8 °F 16.5 °F 73% 29.90 in 10.0 mi NNW 6.9 mph - 0.00 in Snow Light Snow
2:29 PM 24.8 °F 14.0 °F 19.4 °F 80% 29.90 in 10.0 mi North 11.5 mph - N/A Snow Light Snow
2:54 PM 23.0 °F 12.4 °F 19.4 °F 86% 29.91 in 10.0 mi North 10.4 mph - N/A   Overcast
2:55 PM 23.7 °F 13.3 °F 19.6 °F 84% 29.91 in 10.0 mi North 10.4 mph - 0.00 in   Overcast
3:20 PM 23.0 °F 11.1 °F 19.4 °F 86% 29.91 in 10.0 mi North 12.7 mph - N/A   Overcast
3:25 PM 23.0 °F 9.6 °F 17.6 °F 80% 29.92 in 10.0 mi North 16.1 mph - N/A   Overcast
3:30 PM 23.0 °F 11.1 °F 17.6 °F 80% 29.92 in 10.0 mi North 12.7 mph - N/A   Overcast
3:55 PM 21.4 °F 8.5 °F 15.4 °F 78% 29.94 in 10.0 mi North 13.8 mph - 0.00 in   Mostly Cloudy
4:23 PM 19.4 °F 6.0 °F 14.0 °F 80% 29.95 in 10.0 mi North 13.8 mph - N/A   Mostly Cloudy
4:25 PM 19.4 °F 7.2 °F 14.0 °F 80% 29.96 in 10.0 mi North 11.5 mph - N/A   Mostly Cloudy
4:44 PM 17.6 °F 3.7 °F 14.0 °F 86% 29.97 in 10.0 mi North 13.8 mph - N/A   Overcast
4:53 PM 17.6 °F 4.3 °F 12.2 °F 79% 29.98 in 10.0 mi North 12.7 mph - N/A Snow Light Snow
4:55 PM 18.1 °F 5.0 °F 12.9 °F 80% 29.98 in 10.0 mi North 12.7 mph - N/A   Overcast
5:01 PM 17.6 °F 4.3 °F 12.2 °F 79% 29.98 in 10.0 mi North 12.7 mph - N/A Snow Light Snow
5:02 PM 17.6 °F 4.3 °F 12.2 °F 79% 29.98 in 10.0 mi North 12.7 mph - N/A Snow Light Snow
5:29 PM 17.6 °F 5.7 °F 12.2 °F 79% 29.99 in 10.0 mi North 10.4 mph - N/A Snow Light Snow
5:31 PM 17.6 °F 6.4 °F 12.2 °F 79% 29.99 in 10.0 mi North 9.2 mph - N/A Snow Light Snow
5:33 PM 17.6 °F 7.3 °F 12.2 °F 79% 29.99 in 10.0 mi North 8.1 mph - N/A Snow Light Snow
5:36 PM 17.6 °F 8.2 °F 12.2 °F 79% 30.00 in 10.0 mi North 6.9 mph - N/A Snow Light Snow
5:45 PM 17.6 °F 4.3 °F 12.2 °F 79% 30.00 in 10.0 mi North 12.7 mph - N/A Snow Light Snow
5:55 PM 17.4 °F 6.2 °F 11.7 °F 78% 30.01 in 10.0 mi North 9.2 mph - 0.00 in Snow Light Snow
6:35 PM 17.6 °F 8.2 °F 12.2 °F 79% 30.03 in 10.0 mi NNW 6.9 mph - N/A Snow Light Snow
6:40 PM 17.6 °F 8.2 °F 12.2 °F 79% 30.03 in 9.0 mi North 6.9 mph - N/A Snow Light Snow
6:46 PM 17.6 °F 6.4 °F 12.2 °F 79% 30.03 in 7.0 mi North 9.2 mph - N/A Snow Light Snow
6:55 PM 17.1 °F 7.6 °F 12.6 °F 82% 30.03 in 7.0 mi North 6.9 mph - 0.00 in Snow Light Snow
6:59 PM 17.6 °F 8.2 °F 12.2 °F 79% 30.04 in 9.0 mi North 6.9 mph - N/A Snow Light Snow
7:05 PM 17.6 °F 8.2 °F 12.2 °F 79% 30.04 in 10.0 mi North 6.9 mph - N/A Snow Light Snow
7:09 PM 17.6 °F 9.3 °F 12.2 °F 79% 30.04 in 10.0 mi North 5.8 mph - N/A   Overcast
7:13 PM 17.6 °F 9.3 °F 12.2 °F 79% 30.04 in 10.0 mi NNW 5.8 mph - N/A Snow Light Snow
7:26 PM 17.6 °F 7.3 °F 12.2 °F 79% 30.04 in 10.0 mi NNW 8.1 mph - N/A Snow Light Snow
7:28 PM 17.6 °F 7.3 °F 12.2 °F 79% 30.04 in 10.0 mi NNW 8.1 mph - N/A Snow Light Snow
7:55 PM 17.1 °F 3.0 °F 10.6 °F 76% 30.05 in 10.0 mi NNW 13.8 mph - 0.00 in Snow Light Snow
8:19 PM 15.8 °F 0.9 °F 10.4 °F 79% 30.06 in 10.0 mi NNW 15.0 mph - N/A Snow Light Snow
8:20 PM 15.8 °F -0.2 °F 10.4 °F 79% 30.06 in 10.0 mi NNW 17.3 mph 25.3 mph N/A Snow Light Snow
8:24 PM 15.8 °F -1.5 °F 10.4 °F 79% 30.07 in 6.0 mi North 20.7 mph 25.3 mph N/A Snow Light Snow
8:29 PM 14.0 °F -3.9 °F 8.6 °F 79% 30.07 in 5.0 mi NNE 20.7 mph 25.3 mph N/A Snow Light Snow
8:34 PM 12.2 °F -3.1 °F 8.6 °F 85% 30.08 in 6.0 mi NNE 13.8 mph - N/A Snow Light Snow
8:38 PM 12.2 °F -4.8 °F 8.6 °F 85% 30.08 in 7.0 mi North 17.3 mph - N/A Snow Light Snow
8:39 PM 12.2 °F -4.8 °F 8.6 °F 85% 30.08 in 7.0 mi North 17.3 mph - N/A Snow Light Snow
8:42 PM 12.2 °F -3.7 °F 6.8 °F 79% 30.08 in 8.0 mi North 15.0 mph - N/A Snow Light Snow
8:44 PM 12.2 °F -3.7 °F 6.8 °F 79% 30.09 in 9.0 mi North 15.0 mph - N/A Snow Light Snow
8:55 PM 12.2 °F -3.7 °F 7.2 °F 80% 30.09 in 10.0 mi North 15.0 mph 19.6 mph 0.00 in Snow Light Snow
8:56 PM 12.2 °F -2.5 °F 6.8 °F 79% 30.09 in 10.0 mi North 12.7 mph 19.6 mph N/A   Overcast
8:57 PM 12.2 °F -2.5 °F 6.8 °F 79% 30.09 in 10.0 mi North 12.7 mph 19.6 mph N/A   Overcast
9:10 PM 12.2 °F -2.5 °F 6.8 °F 79% 30.09 in 10.0 mi North 12.7 mph - N/A   Overcast
9:34 PM 12.2 °F -1.8 °F 6.8 °F 79% 30.11 in 10.0 mi North 11.5 mph - N/A Snow Light Snow
9:55 PM 11.5 °F -6.7 °F 5.2 °F 76% 30.12 in 10.0 mi North 19.6 mph 23.0 mph 0.00 in Snow Light Snow
10:01 PM 10.4 °F -7.7 °F 3.2 °F 73% 30.12 in 10.0 mi North 18.4 mph 24.2 mph N/A   Overcast
10:04 PM 10.4 °F -7.7 °F 3.2 °F 73% 30.12 in 10.0 mi North 18.4 mph 24.2 mph N/A   Overcast
10:11 PM 10.4 °F -6.6 °F 1.4 °F 67% 30.13 in 10.0 mi North 16.1 mph 24.2 mph N/A   Overcast
10:13 PM 10.4 °F -6.0 °F 1.4 °F 67% 30.13 in 10.0 mi North 15.0 mph 24.2 mph N/A   Overcast
10:27 PM 8.6 °F -8.3 °F -0.4 °F 67% 30.13 in 10.0 mi North 15.0 mph - N/A   Overcast
10:35 PM 8.6 °F -8.9 °F -0.4 °F 67% 30.13 in 10.0 mi North 16.1 mph - N/A   Overcast
10:55 PM 6.6 °F -8.8 °F -2.2 °F 67% 30.14 in 10.0 mi North 11.5 mph - 0.00 in   Mostly Cloudy
11:55 PM 3.6 °F -13.4 °F -4.4 °F 70% 30.16 in 10.0 mi North 12.7 mph - N/A   Clear